Location: Almena City Lake
(39.8850°N, 99.6804°W)
Time: 23:22:22
(UTC+00:00)

Abrixas rocket - Pass Details

Date: 18 February 2020
Orbit: 349 x 357 km, 48.4° (Epoch: 05 April)

Event Time Altitude Azimuth Distance (km) Brightness Sun altitude
Rises 01:45:45 0° 301° (WNW) 2,155 6.9 -17.7°
Reaches altitude 10° 01:47:46 10° 303° (WNW) 1,310 5.6 -18.1°
Enters shadow 01:50:33 77° 341° (NNW) 361 1.8 -18.6°
